DW9918 Weather Reports


Display with metric or nautical units.
time (UTC)temp
F
wind
direction
speed
MPH
gust
MPH
rain 1hr
in
rain 24hr
in
rain mn
in
humidity
%
barometer
mb
20260507010006 58 227 2.0 10.0 0.00 0.66 0.06 79 1011.4
20260507004527 58 172 5.0 11.0 0.00 0.67 0.06 79 1011.5
20260507003019 58 166 4.0 9.0 0.00 0.67 0.06 81 1011.5
20260507001516 58 167 5.0 10.0 0.00 0.67 0.06 81 1011.4
20260507000012 58 225 6.0 9.0 0.00 0.67 0.06 82 1011.6
20260506234512 57 188 4.0 8.0 0.02 0.67 0.06 83 1011.6
20260506233007 57 149 3.0 8.0 0.03 0.67 0.06 84 1011.7
20260506231525 57 204 2.0 5.0 0.04 0.66 0.05 84 1011.9
20260506230024 58 148 4.0 8.0 0.05 0.66 0.05 83 1011.9
20260506224525 58 206 3.0 7.0 0.03 0.65 0.03 83 1012.0
20260506223016 59 30 3.0 7.0 0.02 0.63 0.02 82 1012.0
20260506221511 59 195 4.0 7.0 0.00 0.62 0.00 82 1011.9
20260506220028 60 189 3.0 8.0 0.00 0.61 0.00 80 1011.9
20260506214528 61 203 5.0 9.0 0.00 0.61 0.61 78 1012.0
20260506213026 61 186 5.0 12.0 0.00 0.61 0.61 78 1011.8
20260506211524 61 212 5.0 12.0 0.00 0.61 0.61 79 1011.7
20260506210020 61 217 6.0 12.0 0.00 0.61 0.61 79 1011.7
20260506204518 61 196 6.0 11.0 0.00 0.61 0.61 81 1011.6
20260506203043 61 197 3.0 9.0 0.00 0.61 0.61 81 1011.7
20260506201529 61 212 4.0 10.0 0.00 0.61 0.61 81 1011.5
20260506200041 61 218 4.0 8.0 0.00 0.61 0.61 82 1011.3
20260506194526 61 207 4.0 12.0 0.00 0.61 0.61 81 1011.1
20260506193021 61 229 5.0 9.0 0.00 0.61 0.61 81 1010.9
20260506191504 61 198 5.0 10.0 0.00 0.61 0.61 80 1010.8
20260506190003 62 148 3.0 10.0 0.00 0.61 0.61 79 1010.6
20260506184527 61 210 5.0 11.0 0.02 0.61 0.61 83 1010.4
20260506183012 61 139 3.0 6.0 0.03 0.61 0.61 83 1010.3
20260506181508 61 199 3.0 12.0 0.03 0.60 0.60 81 1010.0
20260506180006 62 233 8.0 15.0 0.03 0.60 0.60 79 1010.1
20260506174505 62 234 8.0 14.0 0.02 0.59 0.59 80 1010.1
20260506173005 63 280 4.0 10.0 0.01 0.58 0.58 80 1009.7
20260506171516 63 281 6.0 13.0 0.00 0.57 0.57 81 1009.5
20260506170014 62 230 6.0 13.0 0.00 0.56 0.56 81 1009.4
20260506164513 62 144 2.0 7.0 0.00 0.56 0.56 85 1009.3
20260506163005 61 80 2.0 7.0 0.00 0.56 0.56 87 1009.3
20260506161504 60 208 4.0 9.0 0.00 0.56 0.56 94 1009.4
20260506160005 59 131 3.0 8.0 0.00 0.56 0.56 94 1009.4
20260506154532 58 170 3.0 6.0 0.00 0.56 0.56 93 1009.5
20260506153016 58 200 3.0 10.0 0.03 0.56 0.56 93 1009.6
20260506151514 60 202 6.0 14.0 0.04 0.55 0.55 92 1009.8
20260506150008 61 267 4.0 7.0 0.04 0.55 0.55 93 1009.9
20260506144508 61 307 6.0 13.0 0.04 0.55 0.55 92 1009.6
20260506143026 63 295 26.0 35.0 0.02 0.53 0.53 85 1009.4
20260506141521 71 153 1.0 5.0 0.00 0.51 0.51 68 1009.0
20260506140029 71 133 5.0 7.0 0.00 0.51 0.51 65 1009.2
20260506134516 71 155 6.0 10.0 0.00 0.51 0.51 65 1009.4
20260506133010 70 139 5.0 13.0 0.00 0.51 0.51 68 1009.6
20260506131514 70 134 6.0 12.0 0.00 0.51 0.51 68 1009.7
20260506130028 69 134 7.0 12.0 0.00 0.51 0.51 69 1009.7
20260506124525 70 172 7.0 12.0 0.00 0.51 0.51 68 1009.8
20260506123020 70 123 5.0 12.0 0.00 0.51 0.51 68 1009.8
20260506121520 70 165 5.0 9.0 0.00 0.51 0.51 69 1009.7
20260506120032 69 203 5.0 9.0 0.00 0.51 0.51 70 1009.8
20260506114514 69 113 8.0 13.0 0.00 0.51 0.51 72 1009.8
20260506113028 68 111 5.0 13.0 0.00 0.51 0.51 71 1010.1
20260506111529 68 197 5.0 11.0 0.00 0.51 0.51 72 1010.3
20260506110022 68 173 4.0 12.0 0.00 0.51 0.51 72 1010.5
20260506104520 68 166 5.0 13.0 0.00 0.51 0.51 75 1010.5
20260506103018 69 119 3.0 15.0 0.00 0.51 0.51 75 1010.6
20260506101514 68 114 7.0 12.0 0.00 0.51 0.51 75 1010.5
20260506100010 68 105 6.0 14.0 0.00 0.51 0.51 73 1010.7
20260506094508 68 154 8.0 13.0 0.00 0.51 0.51 73 1010.7
20260506093006 67 134 4.0 13.0 0.00 0.51 0.51 76 1010.8
20260506091505 66 105 10.0 15.0 0.00 0.51 0.51 76 1010.8
20260506090002 65 121 12.0 17.0 0.00 0.51 0.51 78 1010.7
20260506084528 64 113 8.0 13.0 0.00 0.51 0.51 83 1010.7
20260506083017 63 115 8.0 11.0 0.00 0.53 0.51 86 1010.8
20260506081511 62 90 8.0 12.0 0.00 0.53 0.51 91 1010.8
20260506073026 61 96 7.0 10.0 0.00 0.55 0.51 95 1010.8
20260506071521 60 108 8.0 10.0 0.00 0.60 0.51 95 1010.8
20260506061509 58 115 1.0 3.0 0.05 0.72 0.50 95 1011.3
20260506044516 57 281 0.0 2.0 0.24 0.65 0.43 95 1011.3
20260506043028 57 217 0.0 7.0 0.21 0.62 0.40 95 1011.8
20260506041539 58 259 3.0 8.0 0.11 0.51 0.29 95 1011.8
20260506040026 58 257 6.0 12.0 0.03 0.43 0.21 95 1011.9
20260506034532 58 227 2.0 4.0 0.03 0.40 0.18 94 1011.5
20260506033018 58 11 0.0 1.0 0.13 0.40 0.18 94 1011.0
20260506031514 58 88 2.0 8.0 0.13 0.40 0.18 94 1010.9
20260506030029 58 102 7.0 8.0 0.12 0.40 0.18 94 1011.0
20260506024529 58 288 2.0 5.0 0.10 0.37 0.14 93 1011.5
20260506023025 58 268 5.0 8.0 0.00 0.27 0.05 93 1011.8
20260506021522 58 304 3.0 5.0 0.01 0.27 0.05 93 1011.6
20260506020022 58 282 1.0 3.0 0.04 0.27 0.05 92 1011.8
20260506014522 58 297 0.0 2.0 0.04 0.26 0.04 92 1011.9
20260506013038 58 308 2.0 4.0 0.04 0.26 0.04 92 1011.8
20260506011515 59 12 3.0 4.0 0.03 0.25 0.03 92 1011.6